This is the latest recevied weather packets stored in our database for station/object NEWPRT. If no packets are shown the sender has not sent any weather packets the latest 10 day(s).
| Time | Temp. | Humidity | Pressure | Rain* | Wind** | Luminosity | Snow |
|---|---|---|---|---|---|---|---|
| 1777615957 | - | 86% | 1018.2 hPa | 0 mm | - | - | - |
| 1777615636 | - | 84% | 1018 hPa | 0 mm | - | - | - |
| 1777615313 | - | 87% | 1018.2 hPa | 0 mm | - | - | - |
| 1777614988 | - | 85% | 1018.2 hPa | 0 mm | - | - | - |
| 1777614665 | - | 86% | 1018.1 hPa | 0 mm | - | - | - |
| 1777614342 | - | 82% | 1018.1 hPa | 0 mm | - | - | - |
| 1777614019 | - | 83% | 1018.2 hPa | 0 mm | - | - | - |
| 1777613696 | - | 86% | 1018.2 hPa | 0 mm | - | - | - |
| 1777613373 | - | 87% | 1017.9 hPa | 0 mm | - | - | - |
| 1777613052 | - | 87% | 1017.8 hPa | 0 mm | - | - | - |
| 1777612727 | - | 88% | 1018.2 hPa | 0 mm | - | - | - |
| 1777612404 | - | 88% | 1018.1 hPa | 0 mm | - | - | - |
| 1777612081 | - | 88% | 1018 hPa | 0 mm | - | - | - |
| 1777611758 | - | 88% | 1018.2 hPa | 0 mm | - | - | - |
| 1777611486 | - | 88% | 1018 hPa | 0 mm | - | - | - |
| 1777611435 | - | 88% | 1018 hPa | 0 mm | - | - | - |
| 1777611112 | - | 87% | 1017.8 hPa | 0 mm | - | - | - |
| 1777610790 | - | 87% | 1017.4 hPa | 0 mm | - | - | - |
| 1777610466 | - | 85% | 1017.6 hPa | 0 mm | - | - | - |
| 1777610143 | - | 87% | 1017.4 hPa | 0 mm | - | - | - |
| 1777609821 | - | 87% | 1017.6 hPa | 0 mm | - | - | - |
| 1777609497 | - | 88% | 1017.5 hPa | 0 mm | - | - | - |
| 1777609174 | - | 87% | 1017.5 hPa | 0 mm | - | - | - |
| 1777608852 | - | 88% | 1017.4 hPa | 0 mm | - | - | - |
| 1777608528 | - | 88% | 1017.3 hPa | 0 mm | - | - | - |
* Rain latest hour (hover to see other rain measurements)
** Current wind speed in m/s (hover to see current wind gust speed)